Regional Weather Roundup
Issued by NWS

Home | Current Version | Previous Version | Graphics & Text | Print | Product List | Glossary On
Versions: 1 2 3 4 5 6 7 8 9 10 11 12 13 14 15 16 17 18 19 20 21 22 23 24 25 26 27 28 29 30 31 32 33 34 35 36 37 38 39 40 41 42 43 44 45 46 47 48 49 50
165
ASUS43 KMKX 161611
RWRWI

WISCONSIN REGIONAL WEATHER ROUNDUP
NATIONAL WEATHER SERVICE MILWAUKEE/SULLIVAN WI
1000 AM CST SAT DEC 16 2017

NOTE: "FAIR" INDICATES FEW OR NO CLOUDS BELOW 12,000 FEET WITH NO
SIGNIFICANT WEATHER AND/OR OBSTRUCTIONS TO VISIBILITY.

WIZ001-002-006>008-014>016-023>028-161700-
NORTHWEST WISCONSIN

CITY           SKY/WX    TMP DP  RH WIND       PRES   REMARKS
SUPERIOR ARPT  CLOUDY    19   9  63 E7        29.96R WCI  10
ASHLAND        CLOUDY    15   8  73 NE3       29.97R
HAYWARD        CLOUDY    18   8  65 E7        29.90R WCI   9
SIREN          CLOUDY    21  15  78 NE5       29.89R WCI  15
CUMBERLAND     CLOUDY    21  14  73 E8        29.86R WCI  12
RICE LAKE      CLOUDY    20  15  81 CALM      29.89R
CHETEK         CLOUDY    20  15  80 E6        29.88R WCI  12
LADYSMITH      CLOUDY    18  12  76 E7        29.90R WCI   9
EAU CLAIRE     CLOUDY    22  16  78 E9        29.88R WCI  12
MENOMONIE      CLOUDY    24  19  80 E10       29.88R WCI  13
NEW RICHMOND   CLOUDY    24  19  82 E10       29.86R WCI  13
OSCEOLA        CLOUDY    24  20  84 E9        29.89R WCI  15
$$

WIZ003>005-009-010-017-018-161700-
NORTH CENTRAL WISCONSIN

CITY           SKY/WX    TMP DP  RH WIND       PRES   REMARKS
MANITOWISH WTR CLOUDY    14   8  77 E5        29.91R WCI   6
ARBOR VITAE    CLOUDY    17  10  76 SE6       29.90R WCI   8
WOODRUFF       CLOUDY    17  10  76 SE6       29.90R WCI   8
RHINELANDER    CLOUDY    13   7  77 E8        29.90R WCI   2
EAGLE RIVER    CLOUDY    14   5  67 E6        29.91R WCI   5
LAND O LAKES   CLOUDY    16   7  67 E5        29.93R WCI   9
PHILLIPS       CLOUDY    15   7  72 E7        29.88R WCI   5
TOMAHAWK       CLOUDY    16   8  70 E5        29.90R WCI   9
MEDFORD        CLOUDY    16  10  76 E7        29.87R WCI   6
MERRILL        CLOUDY    17   8  67 E6        29.91R WCI   8
$$

WIZ029-030-035-036-043>047-161700-
CENTRAL WISCONSIN

CITY           SKY/WX    TMP DP  RH WIND       PRES   REMARKS
WAUSAU         CLOUDY    16   7  67 E8        29.90R WCI   5
MOSINEE        CLOUDY    16  10  79 E12       29.90R WCI   3
MARSHFIELD     CLOUDY    17  12  80 E15       29.87R WCI   2
STEVENS POINT  CLOUDY    16  12  86 E10       29.92R WCI   3
WAUPACA        CLOUDY    21  16  79 NE7       29.94R WCI  13
WAUTOMA        CLOUDY    21  16  81 E10       29.92R WCI  10
WISC RAPIDS    CLOUDY    19  12  74 E12       29.91R WCI   7
CAMP DOUGLAS   CLOUDY    21  18  86 E10       29.87R WCI  10
$$

WIZ011>013-019>022-031-037>040-048>050-161700-
NORTHEAST WISCONSIN

CITY           SKY/WX    TMP DP  RH WIND       PRES   REMARKS
ANTIGO         CLOUDY    15   6  69 E8        29.91R WCI   4
SHAWANO        CLOUDY    19  10  67 NE5       29.96R WCI  12
OCONTO         CLOUDY    18  10  72 NE5       29.98R WCI  11
STURGEON BAY   CLOUDY    23  15  71 NE6       29.98R WCI  16
GREEN BAY      CLOUDY    21  12  68 NE8       29.96R WCI  11
MANITOWOC      CLOUDY    23  21  92 N7        29.96R WCI  15
APPLETON       CLOUDY    21  14  73 NE12      29.92R WCI   9
CLINTONVILLE   NOT AVBL
OSHKOSH        CLOUDY    23  19  85 NE10      29.92R WCI  12
$$

WIZ032>034-041-042-053>061-161700-
SOUTHWEST WISCONSIN

CITY           SKY/WX    TMP DP  RH WIND       PRES   REMARKS
LA CROSSE      MOSUNNY   30  24  78 E9        29.85R WCI  22
SPARTA         CLOUDY    24  21  88 E13       29.86S WCI  12
VIROQUA        SUNNY     31  28  90 E12       29.80R WCI  22
BOSCOBEL       SUNNY     38  26  62 NE3       29.85R
PRAIRIE DU CHI SUNNY     37  24  59 E5        29.82R WCI  33
PLATTEVILLE    SUNNY     36  27  70 SW3       29.83R
$$

WIZ056-057-062-063-064-067-068-161700-
SOUTH CENTRAL WISCONSIN

CITY           SKY/WX    TMP DP  RH WIND       PRES   REMARKS
REEDSBURG      CLOUDY    24  21  89 E7        29.87R WCI  16
BARABOO/DELLS  CLOUDY    24  22  90 E8        29.87R WCI  15
LONE ROCK      MOSUNNY   35  28  75 E9        29.86R WCI  28
MINERAL POINT  SUNNY     37  28  70 S3        29.82S
MADISON        PTSUNNY   36  25  64 E7        29.87R WCI  30
MIDDLETON      CLOUDY    37  27  67 E5        29.86R WCI  33
WATERTOWN      MOSUNNY   32  32  98 E9        29.87S WCI  25
MONROE         SUNNY     36  27  69 SW3       29.83S
JANESVILLE     SUNNY     37  25  60 S3        29.86R
$$

WIZ051-052-058>065-066-070>072-161700-
SOUTHEAST WISCONSIN

CITY           SKY/WX    TMP DP  RH WIND       PRES   REMARKS
MILWAUKEE      PTSUNNY   38  29  70 CALM      29.88R
WAUKESHA       MOSUNNY   34  30  86 NE7       29.88R WCI  28
MILWAUKEE/TIMM CLOUDY    34  30  86 E8        29.89R WCI  27
RACINE         MOSUNNY   37  26  64 SW7       29.90R WCI  32
BURLINGTON     SUNNY     38  28  67 CALM      29.88R
KENOSHA        PTSUNNY   39  25  57 SW7       29.88R WCI  34
FOND DU LAC    CLOUDY    25  20  81 NE8       29.91R WCI  16
SHEBOYGAN      CLOUDY    29  27  92 E13       29.92R WCI  19
WEST BEND      CLOUDY    30  30 100 E10       29.90R WCI  21
JUNEAU         CLOUDY    28  26  91 NE7       29.90R WCI  21
$$

LSZ147-162-161700-
LAKE SUPERIOR

STATION/POSITION TIME  TEMP    WIND        PRES    WAVE
                       AIR SEA DIR/SP/G            HT/PER
                 (UTC) (F)     (DEG/KT/KT) (MB)    (FT/S)
DEVILS ISLAND    1600   22     120/ 11/ 15 1016.8R
SAXON HARBOR     1530   17                 1014.6R
$$

LMZ867-665-643>646-161700-
LAKE MICHIGAN

STATION/POSITION TIME  TEMP    WIND        PRES    WAVE
                       AIR SEA DIR/SP/G            HT/PER
                 (UTC) (F)     (DEG/KT/KT) (MB)    (FT/S)
NORTHPORT PIER   1540   24      20/  9/ 12 1015.2R
KEWAUNEE LAKESHO 1412   21     330/  3/  6 1012.7
SHEBOYGAN LAKESH 1600   30      70/ 17/ 18 1014.4R
PORT WASHINGTON  1540   33      80/ 14/ 16 1013.9R
MILWAUKEE LAKESH 1550   36      60/ 16/ 19   N/A
KENOSHA   LAKESH 1600   38      90/  2/  4 1012.5
$$

TC  - TEMPERATURE IN CELSIUS
VSB - VISIBILITY IN STATUTE MILES
WCI - WIND CHILL INDEX
HX  - HEAT INDEX





USA.gov is the U.S. government's official web portal to all federal, state and local government web resources and services.